Flag for Switzerland Weather past 2 weeks in Adliswil, Zurich, Switzerland

Now
72 °F

Mild.


Feels Like: 76 °F
Forecast: 57 / 82 °F
Wind: 3 mph from South

Location: Zurich Town / Ville.

Current Time: Aug 28, 2015 at 3:03:08 AM

Latest Report: Aug 28, 2015 at 2:00 AM


Visibility: N/A

Pressure: 29.94 "Hg

Humidity: 59%

Dew point: 57 °F

Location of AdliswilLocation

Historic Weather in Adliswil — Graph

°F

Adliswil temperature yesterday

Maximum temperature yesterday: 83 °F (at 6:00 PM)
Minimum temperature yesterday: 62 °F (at 6:00 AM)
Average temperature yesterday: 72 °F

Past Weeks' High & Low Weather Summary

 TemperatureHumidityPressure
High90 °F (Aug 13, 5:00 PM)98% (Aug 16, 4:00 AM)30.26 "Hg (Aug 16, 4:00 AM)
Low52 °F (Aug 20, 7:00 AM)34% (Aug 13, 5:00 PM)29.70 "Hg (Aug 24, 2:00 PM)
Average64 °F75%29.98 "Hg
* Reported Aug 13 1:00 AM — Aug 28 1:00 AM, Adliswil, Weather by CustomWeather, © 2015

Note: Actual official high and low records may vary slightly from our data, if they occured in-between our weather recording intervals... More about our weather records

Advertising

Adliswil weather history for previous 24 hours

 ConditionsComfort  
Time TempWeatherWind HumidityBarometerVisibility
1:00 AM
Fri, Aug 28
74 °FMild.6 mph55%29.93 "HgN/A
11:00 PM
Thu, Aug 27
72 °FMild.1 mph70%29.91 "HgN/A
10:00 PM72 °FMild.1 mph65%29.90 "HgN/A
9:00 PM75 °FMild.2 mph58%29.87 "HgN/A
8:00 PM76 °FMild.3 mph58%29.85 "HgN/A
7:00 PM80 °FWarm.3 mph47%29.84 "HgN/A
6:00 PM83 °FPleasantly warm.3 mph39%29.83 "HgN/A
5:00 PM83 °FWarm.3 mph43%29.84 "HgN/A
4:00 PM83 °FWarm.6 mph40%29.85 "HgN/A
3:00 PM83 °FPleasantly warm.3 mph40%29.85 "HgN/A
2:00 PM80 °FSunny.3 mph42%29.87 "HgN/A
1:00 PM80 °FWarm.2 mph42%29.88 "HgN/A
12:00 PM77 °FWarm.1 mph48%29.91 "HgN/A
11:00 AM73 °FMild.5 mph55%29.93 "HgN/A
10:00 AM69 °FMild.1 mph69%29.96 "HgN/A
9:00 AM65 °FMild.2 mph75%29.98 "HgN/A
8:00 AM63 °FMild.3 mph78%30.00 "HgN/A
7:00 AM63 °FMild.2 mph80%30.00 "HgN/A
6:00 AM62 °FCool.1 mph80%29.99 "HgN/A
5:00 AM63 °FMild.3 mph78%29.98 "HgN/A
4:00 AM66 °FMild.5 mph62%29.98 "HgN/A
3:00 AM65 °FMild.5 mph69%29.99 "HgN/A
Weather by CustomWeather, © 2015

See weather overviewHow to use our weather pages